WetterOnline ( https://www.wetteronline.ch )

Wetter aktuell Finsterwalde

Aktuelles Wetter: Kirchhain (100m)

6-stündlich | Neueste Meldungen
Ortszeit Temperatur Wetter
Do, 01.10. 2:00 7.2° C leicht bewölkt
Mi, 30.09. 20:00 12.6° C bewölkt
Mi, 30.09. 14:00 17.9° C leicht bewölkt
Mi, 30.09. 8:00 6.2° C wolkenlos
Mi, 30.09. 2:00 6.7° C leicht bewölkt
Di, 29.09. 20:00 11.3° C wolkig
Di, 29.09. 14:00 15.6° C bewölkt
Di, 29.09. 8:00 11.3° C bedeckt
Ortszeit Temperatur Wetter
Do, 01.10. 7:30 6.0° C bedeckt
Do, 01.10. 7:20 6.0° C bedeckt
Do, 01.10. 7:10 5.6° C bewölkt
Do, 01.10. 7:00 5.3° C leicht bewölkt
Do, 01.10. 6:50 5.3° C leicht bewölkt
Do, 01.10. 6:40 5.4° C fast wolkenlos
Do, 01.10. 6:30 5.3° C fast wolkenlos
Do, 01.10. 6:00 5.8° C wolkenlos
Do, 01.10. 5:30 5.6° C wolkenlos
Do, 01.10. 5:00 5.8° C wolkenlos
Do, 01.10. 4:30 6.0° C leicht bewölkt
Do, 01.10. 4:00 6.3° C bewölkt
Ortszeit Relative Feuchte Sichtweite
Do, 01.10. 2:00 99% 2.3 km
Mi, 30.09. 20:00 87% 40 km
Mi, 30.09. 14:00 58% 50 km
Mi, 30.09. 8:00 99% 4.7 km
Mi, 30.09. 2:00 99% 16 km
Di, 29.09. 20:00 87% 22 km
Di, 29.09. 14:00 63% 50 km
Di, 29.09. 8:00 91% 40 km
Ortszeit Relative Feuchte Sichtweite
Do, 01.10. 7:30 99% 19 km
Do, 01.10. 7:20 99% -
Do, 01.10. 7:10 99% -
Do, 01.10. 7:00 98% 21 km
Do, 01.10. 6:50 98% -
Do, 01.10. 6:40 98% -
Do, 01.10. 6:30 99% 11 km
Do, 01.10. 6:00 98% 10 km
Do, 01.10. 5:30 99% 8 km
Do, 01.10. 5:00 98% 14 km
Do, 01.10. 4:30 98% 10 km
Do, 01.10. 4:00 98% 2.1 km
Ortszeit Niederschlagsmenge Niederschlagsart
Do, 01.10. 2:00 0.0 l/m2 in 6 Std. -
Mi, 30.09. 20:00 0.0 l/m2 in 12 Std. -
Mi, 30.09. 14:00 0.0 l/m2 in 6 Std. -
Mi, 30.09. 8:00 0.0 l/m2 in 12 Std. -
Mi, 30.09. 2:00 0.0 l/m2 in 6 Std. -
Di, 29.09. 20:00 0.1 l/m2 in 12 Std. -
Di, 29.09. 14:00 0.1 l/m2 in 6 Std. Regen
Di, 29.09. 8:00 0.1 l/m2 in 12 Std. -
Ortszeit Niederschlagsmenge Niederschlagsart
Do, 01.10. 7:30 0.0 l/m2 in 1 Std. -
Do, 01.10. 7:20 keine Meldung -
Do, 01.10. 7:10 keine Meldung -
Do, 01.10. 7:00 0.0 l/m2 in 1 Std. -
Do, 01.10. 6:50 keine Meldung -
Do, 01.10. 6:40 keine Meldung -
Do, 01.10. 6:30 0.0 l/m2 in 1 Std. -
Do, 01.10. 6:00 0.0 l/m2 in 1 Std. -
Do, 01.10. 5:30 0.0 l/m2 in 1 Std. -
Do, 01.10. 5:00 0.0 l/m2 in 1 Std. -
Do, 01.10. 4:30 0.0 l/m2 in 1 Std. -
Do, 01.10. 4:00 0.0 l/m2 in 1 Std. -
Ortszeit Stärke Spitze Richtung
km/h Bft. km/h Grad Sektor
Do, 01.10. 2:00 4 1 4 330° NW
Mi, 30.09. 20:00 4 1 18 50° NO
Mi, 30.09. 14:00 7 2 18 330° NW
Mi, 30.09. 8:00 6 1 9 190° S
Mi, 30.09. 2:00 4 1 7 190° S
Di, 29.09. 20:00 6 1 19 290° W
Di, 29.09. 14:00 9 2 15 350° N
Di, 29.09. 8:00 4 1 7 300° NW
Ortszeit Stärke Spitze Richtung
km/h Bft. km/h Grad Sektor
Do, 01.10. 7:30 2 1 4 20° N
Do, 01.10. 7:20 2 1 - 20° N
Do, 01.10. 7:10 0 0 - 310° NW
Do, 01.10. 7:00 2 1 6 290° W
Do, 01.10. 6:50 2 1 - 290° W
Do, 01.10. 6:40 0 0 - 270° W
Do, 01.10. 6:30 4 1 7 210° SW
Do, 01.10. 6:00 2 1 6 120° SO
Do, 01.10. 5:30 2 1 6 190° S
Do, 01.10. 5:00 0 0 4 - -
Do, 01.10. 4:30 2 1 4 50° NO
Do, 01.10. 4:00 0 0 4 - -
Ortszeit Untergrenze Bedeckung Gattung
total tief tief mittel hoch
Do, 01.10. 2:00 <30 m 2/8 0/8 - - -
Mi, 30.09. 20:00 1350 m 7/8 6/8 - - -
Mi, 30.09. 14:00 990 m 2/8 2/8 - - -
Mi, 30.09. 8:00 - 0/8 0/8 - - -
Mi, 30.09. 2:00 9000 m 6/8 0/8 - - -
Di, 29.09. 20:00 8100 m 7/8 0/8 - - -
Di, 29.09. 14:00 1200 m 8/8 7/8 - - -
Di, 29.09. 8:00 1080 m 8/8 8/8 - - -
Ortszeit Bedeckungsgrad in Achtel und Wolkenuntergrenze
Do, 01.10. 7:30 8(60m) 8(10500m)
Do, 01.10. 7:20 8(60m) 8(10500m)
Do, 01.10. 7:10 7(60m) 7(10500m)
Do, 01.10. 7:00 2(30m) 3(10500m)
Do, 01.10. 6:50 2(30m) 2(10500m) 3(10500m)
Do, 01.10. 6:40 1(10500m)
Do, 01.10. 6:30 2(10500m)
Do, 01.10. 6:00 keine Wolken
Do, 01.10. 5:30 keine Wolken
Do, 01.10. 5:00 keine Wolken
Do, 01.10. 4:30 3(<30m)
Do, 01.10. 4:00 7(<30m)
Ortszeit Luftdruck NN (hPa) Tendenz (hPa in 3 Std.)
Do, 01.10. 2:00 1013 - 1,7
Mi, 30.09. 20:00 1014 - 0,3
Mi, 30.09. 14:00 1016 - 1,3
Mi, 30.09. 8:00 1018 + 0,1
Mi, 30.09. 2:00 1018 0,0
Di, 29.09. 20:00 1017 + 1,2
Di, 29.09. 14:00 1016 - 0,1
Di, 29.09. 8:00 1015 + 0,8
Ortszeit Luftdruck NN (hPa) Tendenz (hPa in 3 Std.)
Do, 01.10. 7:30 1010 - 1,1
Do, 01.10. 7:20 1010 keine Meldung
Do, 01.10. 7:10 1010 keine Meldung
Do, 01.10. 7:00 1010 - 1,5
Do, 01.10. 6:50 1010 keine Meldung
Do, 01.10. 6:40 1010 keine Meldung
Do, 01.10. 6:30 1010 - 1,4
Do, 01.10. 6:00 1010 - 1,6
Do, 01.10. 5:30 1011 - 1,9
Do, 01.10. 5:00 1011 - 1,9
Do, 01.10. 4:30 1011 - 1,9
Do, 01.10. 4:00 1012 - 1,8
Ortszeit Schneehöhe (cm)
Do, 01.10. 2:00 -
Mi, 30.09. 20:00 -
Mi, 30.09. 14:00 -
Mi, 30.09. 8:00 -
Mi, 30.09. 2:00 -
Di, 29.09. 20:00 -
Di, 29.09. 14:00 -
Di, 29.09. 8:00 -
Ortszeit Schneehöhe (cm)
Do, 01.10. 7:30 -
Do, 01.10. 7:20 -
Do, 01.10. 7:10 -
Do, 01.10. 7:00 -
Do, 01.10. 6:50 -
Do, 01.10. 6:40 -
Do, 01.10. 6:30 -
Do, 01.10. 6:00 -
Do, 01.10. 5:30 -
Do, 01.10. 5:00 -
Do, 01.10. 4:30 -
Do, 01.10. 4:00 -
Link zu dieser Seite / Seite empfehlen

Das Wetter in ...